User: anonymous
Location: NJAA Observatory
(40.6819°N, 74.8979°W)
Time: 09:27:06
(UTC-04:00)
Language:

Meteor 1-28 Rocket - Orbit

View from above orbital plane
View from above orbital plane
View from above satellite
View from above satellite

Ground track
Ground track

The orbit data is extracted from the following two-line orbital elements,

1 10114U 77057B   14258.70867399  .00002935  00000-0  16643-3 0  3392
2 10114 097.2588 114.7967 0014074 221.9565 138.0590 15.13640702 31255
Epoch (UTC): 15 September 2014 17:00:29
Eccentricity: 0.0014074
inclination: 97.2588°
perigee height: 515 km
apogee height: 535 km
right ascension of ascending node: 114.7967°
argument of perigee: 221.9565°
revolutions per day: 15.13640702
mean anomaly at epoch: 138.0590°
orbit number at epoch: 3125

The dashed part of the orbit path shows where the satellite is in the earth's shadow,  

DLR